CDT,Max TemperatureF,Mean TemperatureF,Min TemperatureF,Max Dew PointF,MeanDew PointF,Min DewpointF,Max Humidity, Mean Humidity, Min Humidity, Max Sea Level PressureIn, Mean Sea Level PressureIn, Min Sea Level PressureIn, Max VisibilityMiles, Mean VisibilityMiles, Min VisibilityMiles, Max Wind SpeedMPH, Mean Wind SpeedMPH, Max Gust SpeedMPH,PrecipitationIn, CloudCover, Events, WindDirDegrees
2013-5-1,89,66,44,28,20,12,31,16,10,30.11,30.00,29.92,10,10,10,24,8,31,0.00,0,,302
2013-5-2,69,53,37,39,28,19,81,54,23,30.49,30.36,30.11,10,10,10,31,24,38,0.00,4,,24
2013-5-3,62,42,21,21,15,5,80,37,14,30.49,30.35,30.14,10,10,8,14,8,26,0.00,0,,101
2013-5-4,77,55,33,28,18,3,35,23,16,30.14,30.06,29.98,10,10,10,14,5,,0.00,0,,11
2013-5-5,77,62,46,25,21,18,32,23,14,30.22,30.14,30.09,10,10,10,15,9,29,0.00,1,,61
2013-5-6,80,63,46,39,29,25,45,27,15,30.14,30.09,30.03,10,10,10,24,8,31,0.00,2,,283
2013-5-7,80,61,42,37,32,23,62,34,15,30.16,30.09,30.03,10,10,10,18,6,25,0.00,2,,269
2013-5-8,80,62,44,37,25,18,53,26,11,30.14,30.06,30.01,10,10,10,17,6,25,0.00,0,,304
2013-5-9,80,68,55,43,27,19,43,22,13,30.14,30.07,30.01,10,10,10,20,10,33,0.00,2,,285
2013-5-10,71,58,46,52,40,28,82,53,33,30.27,30.13,30.05,10,10,10,25,11,31,0.14,2,Thunderstorm,15
2013-5-11,64,53,42,46,43,39,93,67,45,30.35,30.28,30.24,10,10,10,21,10,25,0.05,3,Thunderstorm,32
2013-5-12,69,56,42,45,37,30,81,48,24,30.36,30.31,30.25,10,10,10,18,9,24,0.00,2,,68
2013-5-13,75,56,37,45,37,28,75,48,29,30.36,30.31,30.22,10,10,10,14,7,28,0.00,1,,107
2013-5-14,78,64,51,46,44,37,76,52,28,30.29,30.21,30.08,10,10,5,34,8,41,0.04,3,Thunderstorm,173
2013-5-15,84,62,41,48,39,28,93,50,17,30.18,30.09,30.00,10,10,10,25,8,30,0.04,1,,276
2013-5-16,87,72,57,32,28,21,36,20,11,30.10,30.04,30.00,10,10,10,22,8,33,0.00,0,,287
2013-5-17,91,71,51,30,24,9,33,18,10,30.08,30.04,30.00,10,10,10,21,7,25,0.00,0,,159
2013-5-18,87,66,46,27,18,10,23,15,10,30.10,30.03,29.97,10,10,10,21,7,26,0.00,0,,284
2013-5-19,86,70,55,25,19,12,19,13,10,30.07,30.00,29.94,10,10,10,25,11,31,0.00,0,,285
2013-5-20,87,68,48,25,19,12,24,15,10,30.04,29.99,29.94,10,10,10,30,11,36,0.00,0,,300
2013-5-21,84,68,51,25,20,12,26,16,10,30.07,30.01,29.95,10,10,10,25,9,33,0.00,0,,324
2013-5-22,89,66,44,50,28,18,46,25,10,30.08,30.03,29.96,10,10,7,20,7,23,0.00,0,,263
2013-5-23,91,73,55,55,50,39,88,52,21,30.31,30.07,29.96,10,10,10,29,9,33,0.15,2,Thunderstorm,60
2013-5-24,84,70,57,57,54,48,88,62,30,30.21,30.15,30.08,10,10,10,16,6,,0.14,0,,104
2013-5-25,86,72,57,57,53,45,94,58,23,30.23,30.16,30.08,10,10,8,22,7,34,0.00,0,,120
2013-5-26,91,72,53,57,49,36,88,48,17,30.22,30.14,30.05,10,10,10,25,12,30,0.00,0,,171
2013-5-27,95,76,57,57,51,37,88,47,14,30.11,30.03,29.91,10,10,10,21,9,28,0.00,0,,181
2013-5-28,91,76,60,63,46,18,94,48,10,30.01,29.89,29.80,10,10,10,25,8,29,0.01,0,Thunderstorm,196
2013-5-29,87,70,53,61,38,16,94,42,10,29.93,29.88,29.81,10,10,10,24,8,34,0.00,0,,262
2013-5-30,89,71,53,34,28,21,30,20,13,30.04,29.98,29.90,10,10,10,22,8,25,0.00,0,,286
2013-5-31,93,73,53,32,28,18,38,20,10,30.08,30.01,29.96,10,10,10,17,8,26,0.00,0,,300